#datint,netname,site,siteID,timestamp,IntT,BattV,AirT2,AirT,AirT_Avg,AirT_Max,AirT_Min,RH_Avg,RH_Max,RH_Min,EA_Avg,Td_Avg,Td_Max,Td_Min,WindS_Smp,WindS_Avg,WindD_Avg,WindD_SD,WindS_Max,ETo,ETr,SoilT4,SoilT8,SoilVWC8,SolarW_Avg,wetstate_Avg,wetT_Avg,Precip_accum,Precip_WPG,Precip_TB
15min,AgWx,beryljct,423,07NOV2018:00:00:00,30.1,12.9,31.3,32.2,30.7,32.3,29.5,58,61,54,0.333,17.5,18.1,16.9,0,0.0,43,0.0,0.8,-0.00025,-0.00039,45.0,48.0,22,0,0,35.6,8.36,0.00,0.00
15min,AgWx,beryljct,423,07NOV2018:00:15:00,29.6,12.9,32.6,32.3,32.0,32.5,31.5,55,57,54,0.337,17.8,18.2,17.3,0,0.3,102,18,1.1,-0.00022,-0.00033,44.7,47.9,22,0,0,35.7,8.36,0.00,0.00
15min,AgWx,beryljct,423,07NOV2018:00:30:00,29.5,12.87,31.9,31.3,31.5,32.2,30.0,56,60,54,0.345,17.5,18.7,16.8,3.836,2.3,168,24,5.3,-0.00005,-0.00005,44.5,47.8,22,0,0,35.6,8.36,0.00,0.00
15min,AgWx,beryljct,423,07NOV2018:00:45:00,29.8,12.87,32.1,31.1,31.6,32.4,30.9,58,62,54,0.353,18.4,19.3,17.5,1.513,2.8,153,14,4.5,-0.00002,-0.00001,44.3,47.7,22,0,0,35.7,8.36,0.00,0.00
15min,AgWx,beryljct,423,07NOV2018:01:00:00,29.5,12.86,30.9,31.0,30.4,31.5,28.9,60,69,55,0.323,18.2,19.9,16.8,3.069,2.7,164,4.3,3.9,-0.00003,-0.00003,44.1,47.7,22,0,0,35.7,8.36,0.00,0.00
15min,AgWx,beryljct,423,07NOV2018:01:15:00,29.2,12.85,30.6,29.9,30.2,31.3,29.1,57,60,55,0.336,16.9,17.7,15.9,1.118,2.8,183,12,4.4,-0.00002,-0.00001,43.9,47.6,22,0,0,35.7,8.36,0.00,0.00
15min,AgWx,beryljct,423,07NOV2018:01:30:00,28.6,12.83,29.8,27.7,29.6,30.7,27.7,61,67,58,0.346,17.9,18.9,17.2,0,0.4,154,21,1.7,-0.00020,-0.00030,43.7,47.5,22,0,0,35.5,8.36,0.00,0.00
15min,AgWx,beryljct,423,07NOV2018:01:45:00,27.8,12.81,24.2,20.4,24.6,27.9,20.4,71,75,67,0.280,16.5,18.6,13.2,4.012,1.5,28,54,4.5,-0.00011,-0.00013,43.6,47.4,22,0,0,35.4,8.37,0.00,0.00
15min,AgWx,beryljct,423,07NOV2018:02:00:00,26.5,12.77,21.7,22.0,21.0,22.0,20.4,74,76,72,0.291,14.1,14.6,13.6,4.976,5.1,315,1.1,5.8,-0.00000,0.00001,43.4,47.3,22,0,0,35.6,8.37,0.00,0.00
15min,AgWx,beryljct,423,07NOV2018:02:15:00,25.6,12.77,23.0,22.7,22.3,23.5,21.4,71,73,69,0.298,14.4,15.5,13.5,3.946,4.3,336,13,5.9,-0.00001,0.00000,43.2,47.2,22,0,0,35.5,8.37,0.00,0.00
15min,AgWx,beryljct,423,07NOV2018:02:30:00,25.1,12.77,23.4,23.0,22.8,23.2,22.2,75,79,70,0.304,15.9,17.3,14.7,3.223,3.1,30,19,3.9,-0.00005,-0.00005,43.0,47.1,22,0,0,35.7,8.37,0.00,0.00
15min,AgWx,beryljct,423,07NOV2018:02:45:00,24.8,12.76,23.4,20.5,23.1,24.1,20.5,70,73,68,0.279,14.9,15.8,12.9,2.433,3.2,357,18,4.0,-0.00003,-0.00003,42.8,47.1,22,0,0,35.4,8.37,0.00,0.00
15min,AgWx,beryljct,423,07NOV2018:03:00:00,24.1,12.61,21.3,21.4,20.6,21.8,19.7,75,77,74,0.304,14.1,15.3,12.9,0,0.8,329,0.1,2.5,-0.00013,-0.00018,42.6,47.0,22,0,0,35.6,8.37,0.00,0.00
15min,AgWx,beryljct,423,07NOV2018:03:15:00,23.4,12.72,20.6,19.9,20.1,21.6,19.4,77,79,76,0.284,14.1,16.0,13.3,0,1.3,218,76,3.7,-0.00011,-0.00014,42.5,46.9,22,0,0,35.6,8.37,0.00,0.00
15min,AgWx,beryljct,423,07NOV2018:03:30:00,22.8,12.71,22.0,21.7,21.1,22.1,20.0,75,77,72,0.288,14.5,15.6,13.6,4.077,1.8,318,70,4.3,-0.00009,-0.00011,42.3,46.8,22,0,0,35.4,8.37,0.00,0.00
15min,AgWx,beryljct,423,07NOV2018:03:45:00,22.5,12.71,20.3,19.8,20.0,21.8,18.7,75,77,71,0.277,13.2,14.3,11.8,1.841,2.3,329,6.9,4.1,-0.00006,-0.00007,42.1,46.7,22,0,0,35.9,8.37,0.00,0.00
15min,AgWx,beryljct,423,07NOV2018:04:00:00,21.9,12.71,21.7,21.9,20.8,21.9,19.7,76,78,74,0.300,14.5,15.0,13.2,0.395,0.6,319,0.0,2.8,-0.00015,-0.00021,42.0,46.6,22,0,0,35.4,8.37,0.00,0.00
15min,AgWx,beryljct,423,07NOV2018:04:15:00,21.7,12.7,21.9,20.8,21.4,22.2,20.6,74,76,73,0.290,14.5,15.3,13.7,0,0.8,319,0.0,1.8,-0.00014,-0.00019,41.8,46.5,22,0,0,35.7,8.37,0.00,0.00
15min,AgWx,beryljct,423,07NOV2018:04:30:00,21.4,12.57,21.4,20.5,20.8,21.4,20.0,78,81,75,0.296,15.0,15.8,13.4,1.162,0.2,194,11,1.9,-0.00017,-0.00027,41.6,46.5,22,0,0,35.6,8.37,0.00,0.00
15min,AgWx,beryljct,423,07NOV2018:04:45:00,21.2,12.69,20.9,20.8,20.3,20.8,20.0,79,82,76,0.314,14.9,16.1,13.8,0,0.7,191,0.0,2.2,-0.00014,-0.00020,41.5,46.4,22,0,0,35.8,8.37,0.00,0.00
15min,AgWx,beryljct,423,07NOV2018:05:00:00,20.9,12.69,20.2,19.0,19.8,20.8,18.8,81,84,78,0.282,14.9,16.3,13.2,1.513,0.8,191,0.0,1.8,-0.00014,-0.00019,41.3,46.3,22,0,0,35.6,8.37,0.00,0.00
15min,AgWx,beryljct,423,07NOV2018:05:15:00,20.6,12.68,19.9,20.0,19.2,20.0,18.5,81,82,79,0.305,14.2,15.4,13.2,0,0.6,191,0.0,1.4,-0.00014,-0.00020,41.2,46.2,22,0,0,35.7,8.37,0.00,0.00
15min,AgWx,beryljct,423,07NOV2018:05:30:00,20.4,12.68,21.1,19.4,20.5,21.1,19.4,83,84,81,0.300,16.1,16.8,15.0,1.25,0.0,191,0.0,1.3,-0.00019,-0.00029,41.0,46.1,22,0,0,35.5,8.37,0.00,0.00
15min,AgWx,beryljct,423,07NOV2018:05:45:00,20.3,12.65,19.3,17.4,19.0,19.5,17.4,82,84,79,0.263,14.5,15.5,12.0,2.784,2.2,172,15,3.6,-0.00008,-0.00010,40.9,46.1,22,0,0,35.5,8.37,0.00,0.00
15min,AgWx,beryljct,423,07NOV2018:06:00:00,19.9,12.66,18.2,19.9,17.3,19.9,16.0,83,86,79,0.308,12.9,15.7,11.4,1.447,1.3,186,0.0,2.8,-0.00010,-0.00014,40.8,46.0,22,0,0,35.7,8.37,0.00,0.00
15min,AgWx,beryljct,423,07NOV2018:06:15:00,19.7,12.66,20.7,19.2,20.2,21.2,19.1,79,83,76,0.287,14.7,15.9,13.5,0,1.1,186,0.0,2.2,-0.00012,-0.00016,40.6,45.9,22,0,0,35.6,8.37,0.00,0.00
15min,AgWx,beryljct,423,07NOV2018:06:30:00,19.5,12.64,18.3,15.0,18.3,19.8,15.0,80,81,78,0.242,13.2,14.9,10.1,0.745,0.1,207,11,0.8,0.00001,0.00001,40.5,45.8,22,0,0,35.4,8.37,0.00,0.00
15min,AgWx,beryljct,423,07NOV2018:06:45:00,18.9,12.64,15.6,16.1,15.0,16.1,14.5,83,85,81,0.266,10.6,12.3,10.0,0.767,0.2,224,0.1,0.8,0.00001,0.00001,40.4,45.7,22,0,0,35.7,8.37,0.00,0.00
15min,AgWx,beryljct,423,07NOV2018:07:00:00,18.4,12.64,17.4,16.7,16.7,17.3,16.2,85,87,84,0.271,13.0,14.0,12.3,0.526,0.3,224,0.0,1.2,0.00001,0.00002,40.3,45.7,22,1,0,35.8,8.37,0.00,0.00
15min,AgWx,beryljct,423,07NOV2018:07:15:00,18.1,12.68,17.5,16.8,16.9,17.3,16.5,84,84,82,0.269,12.7,13.3,12.1,0.329,0.4,224,0.0,1.2,0.00003,0.00004,40.2,45.6,22,6,0,35.6,8.37,0.00,0.00
15min,AgWx,beryljct,423,07NOV2018:07:30:00,18.2,12.92,19.1,19.5,18.2,19.5,16.9,84,85,82,0.301,14.1,15.1,12.7,3.135,1.7,212,18,3.6,0.00016,0.00020,40.1,45.5,22,43,0,35.5,8.37,0.00,0.00
15min,AgWx,beryljct,423,07NOV2018:07:45:00,19.4,13.16,22.2,22.0,21.3,22.0,19.6,81,83,79,0.328,16.5,17.2,15.2,2.653,2.2,161,1.5,3.3,0.00026,0.00031,39.9,45.4,22,80,0,35.7,8.37,0.00,0.00
15min,AgWx,beryljct,423,07NOV2018:08:00:00,21.6,13.81,24.0,24.3,23.3,24.3,22.0,78,81,77,0.344,17.4,18.3,16.6,2.521,2.3,154,13,3.0,0.00037,0.00044,39.8,45.3,22,119,0,35.9,8.37,0.00,0.00
15min,AgWx,beryljct,423,07NOV2018:08:15:00,24.1,14.88,25.4,25.7,24.8,25.7,24.1,80,81,77,0.367,19.4,20.0,18.2,2.499,2.8,131,3.6,3.6,0.00048,0.00057,39.7,45.3,22,160,0,37.7,8.37,0.00,0.00
15min,AgWx,beryljct,423,07NOV2018:08:30:00,26.5,14.84,27.1,27.3,26.5,27.3,25.7,76,79,73,0.372,20.0,20.4,19.5,0.373,1.8,125,0.9,3.0,0.00063,0.00071,39.6,45.2,22,201,0,42.1,8.37,0.00,0.00
15min,AgWx,beryljct,423,07NOV2018:08:45:00,29.1,14.85,28.7,29.3,28.2,29.3,27.3,73,74,72,0.393,20.7,21.7,19.9,0.044,0.1,124,0.0,1.1,0.00079,0.00085,39.5,45.1,22,242,0,47.7,8.37,0.00,0.00
15min,AgWx,beryljct,423,07NOV2018:09:00:00,32.2,14.81,31.2,31.5,30.6,31.5,29.3,65,72,58,0.356,20.3,21.4,18.3,0,0.1,124,0.0,1.0,0.00098,0.00105,39.4,45.0,22,283,0,51.5,8.37,0.00,0.00
15min,AgWx,beryljct,423,07NOV2018:09:15:00,35.4,14.69,32.8,33.3,32.3,33.3,31.5,59,61,57,0.369,19.6,20.3,19.0,0.767,0.2,124,0.0,1.3,0.00117,0.00126,39.4,45.0,22,325,0,54.1,8.37,0.00,0.00
15min,AgWx,beryljct,423,07NOV2018:09:30:00,38.1,14.65,34.2,34.0,33.8,34.3,33.2,55,57,52,0.354,19.3,20.2,18.2,3.464,2.1,335,45,4.0,0.00138,0.00159,39.3,44.9,22,363,0,53.9,8.37,0.00,0.00
15min,AgWx,beryljct,423,07NOV2018:09:45:00,40.3,14.64,35.1,34.9,34.7,35.2,34.0,52,55,50,0.344,19.0,20.4,18.2,1.666,2.7,339,22,5.0,0.00156,0.00181,39.3,44.8,22,400,0,52.5,8.36,0.00,0.00
15min,AgWx,beryljct,423,07NOV2018:10:00:00,42.1,14.6,36.6,36.6,36.1,37.3,34.9,50,53,48,0.355,19.4,20.4,18.4,2.543,2.0,345,42,4.3,0.00174,0.00197,39.3,44.7,22,436,0,55.5,8.36,0.00,0.00
15min,AgWx,beryljct,423,07NOV2018:10:15:00,43.7,14.58,37.7,37.8,37.3,38.0,36.6,47,49,45,0.349,19.0,19.8,18.2,1.184,2.1,330,15,5.0,0.00191,0.00218,39.3,44.7,22,467,0,57.2,8.36,0.00,0.00
15min,AgWx,beryljct,423,07NOV2018:10:30:00,45.1,14.65,38.2,38.2,37.9,38.3,37.5,48,50,45,0.371,19.9,21.3,18.4,2.653,1.9,57,20,3.6,0.00205,0.00232,39.3,44.6,22,500,0,59.6,8.36,0.00,0.00
15min,AgWx,beryljct,423,07NOV2018:10:45:00,46.2,14.15,39.4,39.5,39.0,39.9,38.2,46,49,44,0.370,20.0,22.0,18.6,1.622,1.9,81,21,3.1,0.00221,0.00249,39.5,44.5,22,526,0,60.8,8.36,0.00,0.00
15min,AgWx,beryljct,423,07NOV2018:11:00:00,47.0,14.22,40.2,40.4,39.9,40.5,39.4,45,49,43,0.377,20.1,22.2,18.8,1.469,2.5,102,14,4.5,0.00234,0.00267,39.6,44.5,22,549,0,62.0,8.35,0.00,0.00
15min,AgWx,beryljct,423,07NOV2018:11:15:00,47.8,14.07,41.5,42.0,41.1,42.3,40.4,43,47,39,0.356,20.3,21.8,18.5,3.99,1.8,52,56,4.2,0.00246,0.00276,39.8,44.4,22,566,0,62.9,8.35,0.00,0.00
15min,AgWx,beryljct,423,07NOV2018:11:30:00,48.8,14.08,42.1,41.9,41.9,42.4,41.4,39,41,38,0.363,19.0,20.2,18.3,1.995,2.4,354,41,4.7,0.00256,0.00293,40.2,44.4,22,580,0,62.2,8.35,0.00,0.00
15min,AgWx,beryljct,423,07NOV2018:11:45:00,49.6,14.13,43.2,43.6,42.9,43.7,42.0,39,45,37,0.362,19.9,23.0,18.4,1.6,2.7,2.7,36,6.5,0.00265,0.00306,40.5,44.3,22,592,0,61.9,8.35,0.00,0.00
15min,AgWx,beryljct,423,07NOV2018:12:00:00,50.3,14.06,44.1,44.2,43.9,44.6,43.4,38,42,36,0.378,19.8,22.2,18.3,1.513,2.9,22,23,6.2,0.00273,0.00316,40.9,44.3,22,599,0,61.0,8.34,0.00,0.00
15min,AgWx,beryljct,423,07NOV2018:12:15:00,50.9,14.02,44.9,45.0,44.7,45.5,44.1,39,42,36,0.389,21.0,23.3,19.1,2.521,2.6,50,28,5.2,0.00278,0.00320,41.3,44.2,22,605,0,62.8,8.34,0.00,0.00
15min,AgWx,beryljct,423,07NOV2018:12:30:00,51.5,14.11,46.0,46.1,45.8,46.7,45.0,35,40,33,0.356,19.6,22.7,18.1,2.28,3.2,9.5,26,5.8,0.00286,0.00335,41.8,44.2,22,604,0,61.0,8.34,0.00,0.00
15min,AgWx,beryljct,423,07NOV2018:12:45:00,52.2,14.02,46.5,46.4,46.3,47.2,45.8,36,41,31,0.382,20.7,24.2,17.7,3.42,3.4,49,27,6.3,0.00287,0.00338,42.3,44.3,22,601,0,60.9,8.34,0.00,0.00
15min,AgWx,beryljct,423,07NOV2018:13:00:00,52.9,14,47.1,47.4,46.9,47.5,46.2,35,39,33,0.378,20.8,23.5,18.6,3.288,3.4,69,24,6.4,0.00286,0.00337,42.8,44.3,22,593,0,61.0,8.34,0.00,0.00
15min,AgWx,beryljct,423,07NOV2018:13:15:00,53.5,13.93,48.3,49.6,48.0,49.6,47.4,33,37,30,0.364,20.3,22.9,18.7,0,1.7,83,26,4.8,0.00279,0.00316,43.3,44.3,22,582,0,63.3,8.33,0.00,0.00
15min,AgWx,beryljct,423,07NOV2018:13:30:00,54.6,13.88,49.4,49.6,49.2,49.7,48.8,31,38,29,0.369,20.1,25.1,18.6,2.653,2.4,20,33,4.6,0.00279,0.00324,43.8,44.4,22,567,0,63.3,8.33,0.00,0.00
15min,AgWx,beryljct,423,07NOV2018:13:45:00,55.8,13.87,50.2,50.5,49.9,50.6,49.3,32,36,30,0.391,21.0,24.1,19.6,0,1.3,73,26,3.9,0.00266,0.00299,44.4,44.5,22,550,0,64.0,8.33,0.00,0.00
15min,AgWx,beryljct,423,07NOV2018:14:00:00,56.9,13.85,51.3,51.2,51.2,51.7,50.7,32,40,28,0.386,22.7,28.2,19.9,0.022,1.6,75,26,3.9,0.00255,0.00290,44.9,44.6,22,519,0,64.4,8.33,0.00,0.00
15min,AgWx,beryljct,423,07NOV2018:14:15:00,58.0,13.79,52.2,52.8,52.0,52.8,51.2,31,38,29,0.396,22.6,27.2,20.8,0,1.2,120,22,5.0,0.00240,0.00271,45.5,44.7,22,493,0,64.3,8.33,0.00,0.00
15min,AgWx,beryljct,423,07NOV2018:14:30:00,59.0,13.82,52.9,52.9,52.7,53.2,52.3,33,37,29,0.444,24.2,27.5,20.7,1.885,1.5,59,28,3.6,0.00234,0.00267,46.0,44.8,22,474,0,63.5,8.32,0.00,0.00
15min,AgWx,beryljct,423,07NOV2018:14:45:00,60.0,13.79,54.2,55.2,53.9,55.2,52.8,32,37,29,0.503,24.4,29.4,22.3,3.047,1.6,127,37,3.4,0.00215,0.00249,46.5,44.9,22,436,0,63.1,8.32,0.00,0.00
15min,AgWx,beryljct,423,07NOV2018:15:00:00,60.8,13.79,55.6,56.0,55.4,56.0,54.8,30,33,26,0.500,24.5,27.1,21.2,2.718,1.2,99,10,4.3,0.00201,0.00230,47.0,45.0,22,411,0,64.7,8.32,0.00,0.00
15min,AgWx,beryljct,423,07NOV2018:15:15:00,61.5,13.8,56.7,57.1,56.5,57.2,56.0,29,34,26,0.450,24.6,28.8,21.7,3.661,3.1,134,14,5.0,0.00205,0.00258,47.5,45.2,22,376,0,64.8,8.32,0.00,0.00
15min,AgWx,beryljct,423,07NOV2018:15:30:00,61.7,13.82,57.8,57.9,57.6,58.0,57.0,29,33,24,0.447,25.2,29.2,21.6,4.341,4.7,138,10,6.0,0.00206,0.00278,47.9,45.3,22,337,0,63.2,8.32,0.00,0.00
15min,AgWx,beryljct,423,07NOV2018:15:45:00,61.7,13.75,58.2,58.4,58.1,58.4,57.9,27,33,23,0.400,24.3,29.4,20.4,2.828,3.3,65,28,5.0,0.00165,0.00220,48.3,45.5,22,295,0,63.4,8.32,0.00,0.00
15min,AgWx,beryljct,423,07NOV2018:16:00:00,62.0,13.73,58.7,58.6,58.6,58.7,58.4,25,31,21,0.405,22.4,28.1,18.9,2.806,2.6,62,28,3.8,0.00131,0.00177,48.6,45.7,22,253,0,64.8,8.32,0.00,0.00
15min,AgWx,beryljct,423,07NOV2018:16:15:00,62.3,13.78,59.5,59.6,59.3,59.9,58.6,20,26,16,0.293,18.3,23.6,13.2,9.84,6.1,322,42,15.3,0.00167,0.00260,48.8,45.8,22,216,0,62.5,8.32,0.00,0.00
15min,AgWx,beryljct,423,07NOV2018:16:30:00,62.0,13.83,59.3,59.0,59.2,59.7,58.7,17,19,16,0.281,14.6,17.1,12.3,11.79,11.1,289,9.5,17.4,0.00223,0.00375,49.1,46.0,22,176,0,59.6,8.33,0.00,0.00
15min,AgWx,beryljct,423,07NOV2018:16:45:00,61.2,13.79,58.6,58.2,58.5,59.0,58.1,17,17,16,0.267,13.3,14.5,12.1,11.51,11.5,291,9.2,15.2,0.00112,0.00136,49.2,46.1,22,134,0,58.4,8.33,0.00,0.00
15min,AgWx,beryljct,423,07NOV2018:17:00:00,59.8,13.88,56.7,55.5,56.8,58.2,55.5,18,20,16,0.287,13.8,14.9,12.6,7.081,8.0,286,5.6,11.8,0.00084,0.00107,49.3,46.3,22,95,0,56.1,8.33,0.00,0.00
15min,AgWx,beryljct,423,07NOV2018:17:15:00,57.8,13.35,53.6,52.2,53.8,55.5,52.2,21,23,19,0.297,15.1,15.9,14.3,5.941,6.1,282,5.0,7.6,0.00055,0.00074,49.4,46.4,22,47,0,52.3,8.33,0.00,0.00
15min,AgWx,beryljct,423,07NOV2018:17:30:00,54.8,13.26,49.7,48.2,49.9,52.2,48.2,30,35,23,0.385,19.8,23.4,14.9,7.651,8.1,38,46,13.1,0.00049,0.00062,49.4,46.5,22,10,0,48.3,8.33,0.00,0.00
15min,AgWx,beryljct,423,07NOV2018:17:45:00,51.6,13.21,47.4,46.3,47.3,48.2,46.1,35,39,31,0.393,21.2,22.9,19.1,3.003,6.2,63,9.7,10.1,0.00032,0.00043,49.4,46.7,22,3,0,45.4,8.33,0.00,0.00
15min,AgWx,beryljct,423,07NOV2018:18:00:00,48.5,13.19,45.0,45.6,44.8,46.3,42.1,36,41,32,0.341,19.6,22.2,17.9,1.6,2.0,266,55,3.9,-0.00004,-0.00002,49.4,46.8,22,0,0,41.3,8.33,0.00,0.00
15min,AgWx,beryljct,423,07NOV2018:18:15:00,46.5,13.17,45.6,43.9,45.4,46.4,43.8,34,39,32,0.364,18.6,20.5,17.7,4.494,4.5,15,15,7.1,0.00020,0.00029,49.3,46.9,22,0,0,42.3,8.34,0.00,0.00
15min,AgWx,beryljct,423,07NOV2018:18:30:00,45.0,13.15,43.1,42.3,42.9,43.9,42.1,39,43,36,0.378,19.9,21.0,18.8,11.49,6.2,32,9.8,11.5,0.00025,0.00033,49.2,47.0,22,0,0,41.0,8.34,0.00,0.00
15min,AgWx,beryljct,423,07NOV2018:18:45:00,43.9,13.13,42.3,41.9,42.0,42.5,41.6,42,45,41,0.380,20.9,21.6,20.1,10.17,10.4,47,8.0,14.4,0.00036,0.00043,49.1,47.1,22,0,0,40.9,8.34,0.00,0.00
15min,AgWx,beryljct,423,07NOV2018:19:00:00,43.2,13.12,41.9,41.2,41.6,41.9,41.2,43,44,42,0.382,20.8,21.3,20.4,10.76,10.7,59,7.4,13.4,0.00035,0.00043,48.9,47.2,22,0,0,40.7,8.34,0.00,0.00
15min,AgWx,beryljct,423,07NOV2018:19:15:00,42.5,13.12,41.3,40.9,41.0,41.3,40.7,43,45,42,0.364,20.4,21.2,19.5,9.12,11.6,60,8.3,17.4,0.00036,0.00043,48.7,47.3,22,0,0,40.2,8.34,0.00,0.00
15min,AgWx,beryljct,423,07NOV2018:19:30:00,41.9,13.11,40.3,39.5,40.0,40.9,39.5,44,45,42,0.367,20.0,20.5,19.5,7.958,9.2,66,7.4,12.1,0.00030,0.00037,48.5,47.3,22,0,0,39.0,8.34,0.00,0.00
15min,AgWx,beryljct,423,07NOV2018:19:45:00,41.2,13.1,39.5,39.0,39.2,39.6,38.9,45,46,44,0.361,19.4,20.1,18.9,7.826,9.5,64,7.0,12.9,0.00029,0.00036,48.3,47.4,22,0,0,38.2,8.35,0.00,0.00
15min,AgWx,beryljct,423,07NOV2018:20:00:00,40.4,13.08,38.8,38.3,38.5,38.9,38.2,46,47,44,0.358,19.3,19.7,18.9,10.11,8.3,71,8.4,11.0,0.00025,0.00032,48.1,47.4,22,0,0,37.5,8.35,0.00,0.00
15min,AgWx,beryljct,423,07NOV2018:20:15:00,39.7,13.07,38.3,37.6,38.0,38.5,37.5,46,48,45,0.358,19.1,19.5,18.7,4.626,6.9,72,8.9,11.0,0.00021,0.00027,47.9,47.5,22,0,0,36.8,8.35,0.00,0.00
15min,AgWx,beryljct,423,07NOV2018:20:30:00,39.0,13.07,37.9,37.4,37.5,37.7,37.3,47,48,46,0.359,19.2,19.6,18.9,7.848,6.9,80,7.0,9.5,0.00019,0.00025,47.7,47.5,22,0,0,36.2,8.35,0.00,0.00
15min,AgWx,beryljct,423,07NOV2018:20:45:00,38.5,13.06,37.3,36.4,37.0,37.4,36.3,48,50,47,0.362,19.1,19.4,18.8,8.55,7.0,82,7.8,9.4,0.00019,0.00025,47.5,47.5,22,0,0,35.8,8.35,0.00,0.00
15min,AgWx,beryljct,423,07NOV2018:21:00:00,37.9,13.05,36.7,36.0,36.3,36.7,36.0,49,50,48,0.356,19.1,19.6,18.8,6.05,6.8,77,5.3,9.1,0.00017,0.00023,47.3,47.5,22,0,0,35.3,8.35,0.00,0.00
15min,AgWx,beryljct,423,07NOV2018:21:15:00,37.3,13.02,36.0,35.0,35.7,36.3,35.0,50,52,49,0.356,18.9,19.3,18.6,3.464,5.5,69,7.0,7.9,0.00013,0.00018,47.1,47.5,22,0,0,35.3,8.35,0.00,0.00
15min,AgWx,beryljct,423,07NOV2018:21:30:00,36.4,13.02,34.6,34.0,34.2,35.0,33.8,51,53,50,0.345,18.2,19.2,17.6,3.091,3.2,51,7.2,5.1,0.00002,0.00004,46.9,47.5,22,0,0,35.2,8.35,0.00,0.00
15min,AgWx,beryljct,423,07NOV2018:21:45:00,35.4,13,34.4,33.5,34.0,34.3,33.5,53,56,51,0.359,18.6,19.3,18.1,2.324,3.1,69,10,4.4,0.00000,0.00003,46.7,47.5,22,0,0,35.4,8.35,0.00,0.00
15min,AgWx,beryljct,423,07NOV2018:22:00:00,34.5,13,34.1,33.6,33.6,33.8,33.4,50,55,49,0.321,16.9,19.2,16.4,0.877,1.4,43,1.7,2.2,-0.00010,-0.00013,46.4,47.5,22,0,0,35.4,8.35,0.00,0.00
15min,AgWx,beryljct,423,07NOV2018:22:15:00,33.6,12.86,33.5,32.8,33.1,33.6,32.4,51,53,49,0.335,17.0,17.6,16.6,0.986,0.3,58,12,1.8,-0.00023,-0.00034,46.2,47.5,22,0,0,35.6,8.35,0.00,0.00
15min,AgWx,beryljct,423,07NOV2018:22:30:00,33.1,12.98,33.5,32.3,33.1,33.7,32.3,54,58,52,0.356,18.4,19.1,17.6,4.757,3.6,67,9.8,5.1,0.00002,0.00005,46.0,47.4,22,0,0,35.7,8.36,0.00,0.00
15min,AgWx,beryljct,423,07NOV2018:22:45:00,32.8,12.97,32.4,31.6,32.0,32.4,31.6,58,59,57,0.353,18.8,19.2,18.4,2.061,3.7,68,5.1,5.9,0.00002,0.00004,45.8,47.4,22,0,0,35.5,8.36,0.00,0.00
15min,AgWx,beryljct,423,07NOV2018:23:00:00,32.2,12.96,32.1,31.6,31.6,31.8,31.5,55,59,54,0.325,17.5,18.9,16.9,0.548,0.9,35,12,2.5,-0.00016,-0.00021,45.6,47.3,22,0,0,35.8,8.36,0.00,0.00
15min,AgWx,beryljct,423,07NOV2018:23:15:00,31.5,12.95,31.7,31.0,31.2,31.7,30.9,55,55,54,0.326,16.8,17.0,16.7,0,0.5,21,4.4,1.8,-0.00019,-0.00028,45.4,47.3,22,0,0,35.5,8.36,0.00,0.00
15min,AgWx,beryljct,423,07NOV2018:23:30:00,30.8,12.94,31.6,30.9,31.1,31.6,30.7,56,56,55,0.325,17.1,17.3,16.6,0.548,0.6,18,1.1,1.7,-0.00019,-0.00027,45.1,47.3,22,0,0,35.4,8.36,0.00,0.00
15min,AgWx,bigpiney,439,07NOV2018:00:00:00,15.5,12.69,16.1,16.2,15.2,17.2,12.9,84,86,80,0.257,11.2,12.9,9.0,3.924,2.7,271,18,4.5,0.00002,0.00003,37.4,40.0,37,0,0,0.0,.,0.00,0.00
15min,AgWx,bigpiney,439,07NOV2018:00:15:00,15.3,12.7,14.0,14.8,13.7,16.1,12.8,83,85,78,0.246,9.4,11.5,8.1,3.529,3.5,272,23,4.8,0.00003,0.00003,37.4,40.0,37,0,0,0.0,.,0.00,0.00
15min,AgWx,bigpiney,439,07NOV2018:00:30:00,15.1,12.68,14.6,13.6,14.3,16.4,12.7,83,88,78,0.235,10.2,12.3,7.7,1.118,2.8,336,28,4.7,0.00002,0.00003,37.4,40.0,37,0,0,0.0,.,0.00,0.00
15min,AgWx,bigpiney,439,07NOV2018:00:45:00,14.9,12.68,14.3,13.0,13.9,14.8,12.6,86,88,84,0.238,10.6,11.8,9.0,4.012,2.3,304,27,4.0,0.00001,0.00002,37.4,40.0,37,0,0,0.0,.,0.00,0.00
15min,AgWx,bigpiney,439,07NOV2018:01:00:00,14.6,12.68,13.3,13.1,12.9,13.4,12.3,88,90,87,0.247,10.1,10.9,9.3,3.376,3.3,294,18,4.4,0.00001,0.00002,37.4,40.0,37,0,0,0.0,.,0.00,0.00
15min,AgWx,bigpiney,439,07NOV2018:01:15:00,14.3,12.66,13.5,13.6,13.0,13.7,12.2,89,91,87,0.254,10.4,11.3,9.2,4.735,2.9,266,12,4.7,0.00001,0.00001,37.4,40.0,37,0,0,0.0,.,0.00,0.00
15min,AgWx,bigpiney,439,07NOV2018:01:30:00,14.1,12.67,12.5,10.3,12.3,13.6,10.2,88,90,85,0.211,9.4,11.1,6.7,3.376,4.3,265,17,5.1,0.00002,0.00002,37.4,40.0,37,0,0,0.0,.,0.00,0.00
15min,AgWx,bigpiney,439,07NOV2018:01:45:00,13.7,12.66,12.9,11.7,12.3,14.2,10.3,89,91,85,0.220,9.6,11.8,7.2,4.779,3.2,251,12,5.2,0.00001,0.00001,37.3,40.0,37,0,0,0.0,.,0.00,0.00
15min,AgWx,bigpiney,439,07NOV2018:02:00:00,13.4,12.66,12.5,13.4,12.0,13.7,9.9,87,91,83,0.247,8.9,11.2,5.7,2.959,3.3,267,11,4.5,0.00001,0.00002,37.3,40.0,37,0,0,0.0,.,0.00,0.00
15min,AgWx,bigpiney,439,07NOV2018:02:15:00,12.9,12.65,13.3,11.6,13.0,15.3,11.2,86,89,80,0.205,9.5,12.2,6.5,1.513,3.5,246,8.6,4.7,0.00002,0.00003,37.3,40.0,37,0,0,0.0,.,0.00,0.00
15min,AgWx,bigpiney,439,07NOV2018:02:30:00,12.5,12.64,11.5,12.9,11.0,13.2,8.7,84,89,79,0.225,7.1,9.3,4.8,3.244,2.6,220,14,5.5,0.00001,0.00002,37.3,40.0,37,0,0,0.0,.,0.00,0.00
15min,AgWx,bigpiney,439,07NOV2018:02:45:00,12.2,12.64,11.7,9.6,11.5,12.9,9.6,82,84,80,0.193,7.1,8.5,5.1,2.543,4.6,210,5.2,5.7,0.00003,0.00004,37.3,40.0,37,0,0,0.0,.,0.00,0.00
15min,AgWx,bigpiney,439,07NOV2018:03:00:00,11.8,12.64,9.6,10.3,9.1,10.3,8.2,84,90,82,0.218,5.3,7.9,4.1,2.324,2.7,171,79,8.0,0.00001,0.00002,37.3,40.0,37,0,0,0.0,.,0.00,0.00
15min,AgWx,bigpiney,439,07NOV2018:03:15:00,11.5,12.64,11.4,12.3,10.7,12.3,9.9,88,91,85,0.242,7.9,10.2,6.4,1.666,2.1,122,26,3.8,0.00000,0.00001,37.3,40.0,37,0,0,0.0,.,0.00,0.00
15min,AgWx,bigpiney,439,07NOV2018:03:30:00,11.2,12.63,12.3,11.4,11.9,13.7,9.9,89,91,86,0.232,9.2,11.2,6.5,1.052,1.0,159,58,3.5,-0.00000,-0.00001,37.3,40.1,37,0,0,0.0,.,0.00,0.00
15min,AgWx,bigpiney,439,07NOV2018:03:45:00,11.0,12.62,11.7,11.4,11.3,11.7,10.2,89,91,86,0.228,8.7,9.5,6.9,2.718,2.0,301,20,4.0,0.00000,0.00001,37.3,40.0,37,0,0,0.0,.,0.00,0.00
15min,AgWx,bigpiney,439,07NOV2018:04:00:00,10.9,12.62,12.1,11.2,11.7,11.9,11.1,90,90,88,0.223,9.2,9.6,8.3,1.688,3.1,309,19,4.5,0.00001,0.00001,37.3,40.0,37,0,0,0.0,.,0.00,0.00
15min,AgWx,bigpiney,439,07NOV2018:04:15:00,11.0,12.63,11.4,10.6,11.0,12.5,10.0,89,91,87,0.222,8.5,10.3,7.0,2.368,2.2,276,12,3.6,0.00000,0.00001,37.3,40.0,37,0,0,0.0,.,0.00,0.00
15min,AgWx,bigpiney,439,07NOV2018:04:30:00,10.9,12.61,11.6,11.5,11.0,12.5,9.7,90,93,86,0.235,8.6,10.7,6.3,2.433,2.8,276,8.0,4.1,0.00001,0.00001,37.2,40.0,37,0,0,0.0,.,0.00,0.00
15min,AgWx,bigpiney,439,07NOV2018:04:45:00,10.6,12.63,12.1,12.9,11.4,13.1,9.1,90,94,86,0.251,9.1,11.5,5.7,2.258,1.8,267,10,3.1,0.00000,0.00000,37.2,40.0,37,0,0,0.0,.,0.00,0.00
15min,AgWx,bigpiney,439,07NOV2018:05:00:00,10.4,12.62,13.0,14.8,12.2,14.8,9.2,91,94,85,0.277,10.0,13.2,5.5,2.324,2.8,270,9.6,4.0,0.00001,0.00001,37.2,39.9,37,0,0,0.0,.,0.00,0.00
15min,AgWx,bigpiney,439,07NOV2018:05:15:00,10.2,12.6,13.6,12.5,13.4,15.2,10.8,90,93,85,0.244,11.0,13.5,7.3,0.504,1.8,286,14,2.9,0.00000,0.00000,37.2,40.0,37,0,0,0.0,.,0.00,0.00
15min,AgWx,bigpiney,439,07NOV2018:05:30:00,9.9,12.6,12.0,9.0,11.7,13.5,8.9,90,94,84,0.195,9.4,12.0,5.0,2.806,1.4,306,21,3.5,-0.00000,-0.00000,37.2,39.9,37,0,0,0.0,.,0.00,0.00
15min,AgWx,bigpiney,439,07NOV2018:05:45:00,9.7,12.6,11.7,10.4,11.1,12.0,9.2,89,92,86,0.213,8.6,9.8,5.7,2.455,3.2,285,11,4.7,0.00001,0.00001,37.2,39.9,37,0,0,0.0,.,0.00,0.00
15min,AgWx,bigpiney,439,07NOV2018:06:00:00,9.6,12.57,12.3,12.4,11.4,13.3,9.3,91,94,87,0.247,9.2,11.8,6.1,2.653,2.2,259,6.2,2.7,0.00000,0.00000,37.2,39.9,37,0,0,0.0,.,0.00,0.00
15min,AgWx,bigpiney,439,07NOV2018:06:15:00,9.3,12.6,8.8,6.5,8.9,13.7,6.3,88,93,84,0.177,6.0,12.1,2.7,3.42,3.7,230,12,5.2,0.00001,0.00002,37.2,39.9,37,0,0,0.0,.,0.00,0.00
15min,AgWx,bigpiney,439,07NOV2018:06:30:00,8.9,12.6,6.1,5.5,5.8,6.6,4.5,86,86,84,0.169,2.3,3.4,0.7,2.894,2.7,234,8.2,3.8,0.00001,0.00001,37.2,39.9,37,0,0,0.0,.,0.00,0.00
15min,AgWx,bigpiney,439,07NOV2018:06:45:00,8.4,12.6,6.7,7.4,6.0,7.4,5.1,87,90,85,0.191,2.8,4.9,1.4,1.14,1.9,280,73,4.9,0.00001,0.00001,37.1,39.9,37,0,0,0.0,.,0.00,0.00
15min,AgWx,bigpiney,439,07NOV2018:07:00:00,8.1,12.59,8.6,7.5,8.0,9.3,7.5,89,91,87,0.187,5.3,7.1,4.4,1.25,0.6,13,14,2.5,-0.00001,-0.00001,37.1,40.0,37,2,0,0.0,.,0.00,0.00
15min,AgWx,bigpiney,439,07NOV2018:07:15:00,7.9,12.62,7.1,6.4,6.7,7.7,5.9,87,89,84,0.177,3.5,5.2,2.1,2.499,0.9,213,46,3.7,0.00000,0.00001,37.1,39.9,37,7,0,0.0,.,0.00,0.00
15min,AgWx,bigpiney,439,07NOV2018:07:30:00,8.0,12.68,9.1,9.7,8.2,10.0,6.2,88,90,86,0.207,5.3,7.5,2.8,0.767,1.2,221,5.3,3.4,-0.00010,-0.00010,37.1,39.9,37,16,0,0.0,.,0.00,0.00
15min,AgWx,bigpiney,439,07NOV2018:07:45:00,8.7,12.79,11.6,11.8,10.8,11.8,9.7,88,89,87,0.229,7.9,8.9,6.7,0.614,0.7,209,11,2.0,-0.00003,-0.00002,37.1,39.8,37,28,0,0.0,.,0.00,0.00
15min,AgWx,bigpiney,439,07NOV2018:08:00:00,9.9,12.98,13.8,14.2,13.1,14.2,11.8,89,89,88,0.257,10.4,11.6,9.0,0,0.2,213,0.3,1.1,0.00004,0.00004,37.1,39.9,37,43,0,0.0,.,0.00,0.00
15min,AgWx,bigpiney,439,07NOV2018:08:15:00,11.5,13.43,15.5,15.5,14.9,15.6,14.1,89,90,88,0.271,12.2,12.7,11.3,0.658,0.9,215,9.6,2.1,0.00011,0.00012,37.1,39.9,37,65,0,0.0,.,0.00,0.00